Terminal Aerodrome Forecast
Issued by NWS Twin Cities, MN

Home | Current Version | Previous Version | Text Only | Print | Product List | Glossary Off
Versions: 1 2 3 4 5 6 7 8 9 10 11 12 13 14 15 16 17 18 19 20 21 22 23 24 25 26 27

166
FTUS43 KMPX 080321 AAC
TAFMSP
TAF AMD
KMSP 080321Z 0803/0906 31020G32KT 4SM -SN BLSN SCT015 OVC030
      TEMPO 0803/0807 1 1/2SM -SN BLSN OVC015
     FM081400 33022G32KT 5SM -SN BLSN OVC020
     FM082100 32017G27KT P6SM BKN025
     FM090300 32015G24KT P6SM BKN020=

USA.gov is the U.S. government's official web portal to all federal, state and local government web resources and services.